Cincinnati, OH

10:57 AM EST on February 12, 2016 (GMT -0500)
Mt Adams | | Change Station
CLOSE
Current Station
Personal Weather Station
Location: Cincinnati, OH
Elevation: 797 ft
Nearby Weather Stations

Elev 797 ft 39.11 °N, 84.50 °W | Updated 15 seconds ago

Snow
Snow
24.4 °F
Feels Like 15 °F
N
9.4
Wind Variable Wind from WSW
Gusts 9.9 mph

Today
High -- | Low -- °F
--% Chance of Precip.
Yesterday
High -- | Low -- °F
Precip. -- in
Pressure 30.22 in
Visibility 8.0 miles
Clouds Mostly Cloudy 3500 ft
Mostly Cloudy 4200 ft
Overcast 5000 ft
Windchill 15 °F
Dew Point 17 °F
Humidity 74%
Rainfall 0.00 in
Snow Depth Not available.
7:33 AM 6:11 PM
Waxing Crescent, 21% visible
METAR KLUK 121553Z 21007KT 8SM BKN035 BKN042 OVC050 M04/M09 A3019 RMK AO2 SNB33E50 SLP231 P0000 T10391089
Pressure 30.22 in
Visibility 8.0 miles
Clouds Mostly Cloudy 3500 ft
Mostly Cloudy 4200 ft
Overcast 5000 ft
Windchill 15 °F
Dew Point 17 °F
Humidity 74%
Rainfall 0.00 in
Snow Depth Not available.
7:33 AM 6:11 PM
Waxing Crescent, 21% visible
METAR KLUK 121553Z 21007KT 8SM BKN035 BKN042 OVC050 M04/M09 A3019 RMK AO2 SNB33E50 SLP231 P0000 T10391089

10-Day Weather Forecast

Almanac

Astronomy

Feb. 12, 2016 Rise Set
Actual Time
Civil Twilight
Nautical Twilight
Astronomical Twilight
Moon
Length of Visible Light
Length of Day
Tomorrow will be .
, % of the Moon is Illuminated

Today's Extremes

State Highs State Lows

Community

WunderPhotos

Upload Photos

1,892,335 photos uploaded!

WunderBlog® & News

Nearby

Air Quality

  Air Quality AQ Index Pollutant
Not available.

Snow Depth

Station Depth Elevation

Earthquake Activity

City Distance Mag. Time & Date
Minimum magnitude displayed is 2.5.

Coastal Water Temperatures

Place Temperature

Stations

Nearby Weather Stations

Station Location Temp. Windchill Dew Point Humidity Wind Precip. Elev Updated Type
                   

Watches & Warnings

There are currently no watches in effect.